Albany, GA

8:54 AM EST on December 03, 2016 (GMT -0500)
Southwest Georgia Regional

Weather History for KABY - January, 2014

Change the Weather History Date:

Friday, January 17, 2014

  Actual Average Record
Temperature  
Mean Temperature 48 °F 49 °F  
Max Temperature 63 °F 61 °F 80 °F (1950)
Min Temperature 33 °F 38 °F 11 °F (1977)
Degree Days  
Heating Degree Days 17 16  
Month to date heating degree days 288 272  
Since 1 July heating degree days 914 985  
Cooling Degree Days 0 0  
Month to date cooling degree days 0 0  
Year to date cooling degree days 0 0  
Moisture  
Dew Point 27 °F    
Average Humidity 54    
Maximum Humidity 82    
Minimum Humidity 25    
Precipitation  
Precipitation 0.00 in 0.13 in 0.54 in (2006)
Month to date precipitation 1.29 2.24  
Year to date precipitation 1.29 2.24  
Sea Level Pressure  
Sea Level Pressure 30.09 in    
Wind  
Wind Speed 8 mph (WSW)    
Max Wind Speed 21 mph    
Max Gust Speed 28 mph    
Visibility 10 miles    
Events      
T = Trace of Precipitation, MM = Missing Value Source: NWS Daily Summary

Daily Weather History Graph

Daily Weather History Graph

Search for Another Location

Airport or City:

Trip Planner

Search our weather history database for the weather conditions in past years. The results will help you decide how hot, cold, wet, or windy it might be!

Date:

Astronomy

Jan. 17, 2014 Rise Set
Actual Time 7:36 AM EST 5:57 PM EST
Civil Twilight 7:09 AM EST 6:24 PM EST
Nautical Twilight 6:40 AM EST 6:53 PM EST
Astronomical Twilight 6:11 AM EST 7:23 PM EST
Moon 7:34 PM EST (1/17) 8:11 AM EST (1/17)
Length of Visible Light 11h 14m
Length of Day
10h 21m
Full, 98% of the Moon is Illuminated
Jan 17
Full
Jan 24
Last Quarter
Jan 30
New
Feb 6
First Quarter
Feb 14
Full

Hourly Weather History & Observations

Time (EST) Temp. Windchill Dew Point Humidity Pressure Visibility Wind Dir Wind Speed Gust Speed Precip Events Conditions
12:53 AM 33.1 °F 28.7 °F 24.1 °F 70% 30.14 in 10.0 mi South 4.6 mph - N/A   Clear
1:53 AM 35.1 °F - 24.1 °F 64% 30.14 in 10.0 mi Calm Calm - N/A   Clear
2:53 AM 34.0 °F 31.0 °F 25.0 °F 70% 30.13 in 10.0 mi SSW 3.5 mph - N/A   Clear
3:53 AM 34.0 °F 31.0 °F 26.1 °F 73% 30.12 in 10.0 mi SSW 3.5 mph - N/A   Clear
4:53 AM 35.1 °F 31.0 °F 27.0 °F 72% 30.10 in 10.0 mi SSW 4.6 mph - N/A   Clear
5:53 AM 36.0 °F 32.1 °F 28.9 °F 76% 30.10 in 10.0 mi SSW 4.6 mph - N/A   Clear
6:53 AM 36.0 °F 32.1 °F 30.0 °F 79% 30.11 in 10.0 mi SSW 4.6 mph - N/A   Clear
7:53 AM 37.9 °F 34.4 °F 32.0 °F 79% 30.12 in 10.0 mi SW 4.6 mph - N/A   Clear
8:53 AM 43.0 °F 39.5 °F 37.0 °F 80% 30.13 in 10.0 mi SW 5.8 mph - N/A   Clear
9:53 AM 48.9 °F - 41.0 °F 74% 30.14 in 10.0 mi WSW 6.9 mph - N/A   Clear
10:53 AM 54.0 °F - 41.0 °F 62% 30.13 in 10.0 mi West 9.2 mph - N/A   Clear
11:53 AM 54.0 °F - 39.0 °F 57% 30.12 in 10.0 mi West 8.1 mph - N/A   Clear
12:53 PM 57.9 °F - 37.0 °F 46% 30.08 in 10.0 mi WSW 11.5 mph - N/A   Clear
1:53 PM 61.0 °F - 26.1 °F 26% 30.05 in 10.0 mi West 13.8 mph 25.3 mph N/A   Clear
2:53 PM 62.1 °F - 27.0 °F 26% 30.03 in 10.0 mi WSW 13.8 mph 20.7 mph N/A   Clear
3:53 PM 61.0 °F - 26.1 °F 26% 30.01 in 10.0 mi SW 13.8 mph - N/A   Clear
4:53 PM 60.1 °F - 25.0 °F 26% 30.00 in 10.0 mi SW 12.7 mph 20.7 mph N/A   Clear
5:53 PM 57.9 °F - 26.1 °F 30% 30.01 in 10.0 mi WSW 8.1 mph - N/A   Clear
6:53 PM 57.0 °F - 26.1 °F 30% 30.03 in 10.0 mi West 11.5 mph - N/A   Clear
7:53 PM 53.1 °F - 19.9 °F 27% 30.06 in 10.0 mi NW 17.3 mph 27.6 mph N/A   Clear
8:53 PM 48.9 °F - 19.9 °F 32% 30.10 in 10.0 mi NW 8.1 mph - N/A   Clear
9:53 PM 48.0 °F - 18.0 °F 30% 30.12 in 10.0 mi NW 12.7 mph - N/A   Clear
10:53 PM 45.0 °F 40.6 °F 16.0 °F 31% 30.15 in 10.0 mi WNW 8.1 mph 21.9 mph N/A   Clear
11:53 PM 43.0 °F 37.2 °F 12.9 °F 30% 30.16 in 10.0 mi NW 10.4 mph - N/A   Clear